This demonstration page uses our WeatherBlox Daily Observations layout. Learn more.

Left ArrowRight Arrow

34.74481, -87.66753

Hourly Observations for January 21, 2020

Temp ( °F °C ) Dew Point ( °F °C ) Humidity (%) Winds ( mph kmh ) Pressure ( in mb ) Visibility ( mi km ) Precip ( " mm )
12:53 am 00:53 Cloudy 25 -3.9 13 -10.6 60 60 N 7 11 30.55 1035 10 16 0.00 0.00
1:02 am 01:02 Cloudy 25 -3.9 13 -10.6 60 60 N 8 13 30.58 1036 10 16 0.00 0.00
1:16 am 01:16 Cloudy 25 -3.9 14 -10 63 63 N 9 15 30.58 1036 10 16 0.00 0.00
1:53 am 01:53 Cloudy 26 -3.3 14 -10 60 60 N 9 15 30.56 1035 10 16 0.00 0.00
2:53 am 02:53 Cloudy 26 -3.3 14 -10 60 60 NNE 14 22 30.56 1035 10 16 0.00 0.00
3:53 am 03:53 Cloudy 25 -3.9 14 -10 63 63 N 14 22 30.57 1035 10 16 0.00 0.00
4:53 am 04:53 Cloudy 25 -3.9 14 -10 63 63 NNE 10 17 30.58 1036 10 16 0.00 0.00
5:53 am 05:53 Cloudy 25 -3.9 15 -9.4 66 66 NE 15 24 30.59 1036 10 16 0.00 0.00
6:53 am 06:53 Cloudy 25 -3.9 14 -10 63 63 NE 12 19 30.60 1036 10 16 0.00 0.00
7:53 am 07:53 Cloudy 26 -3.3 14 -10 60 60 NE 8 13 30.61 1037 10 16 0.00 0.00
8:23 am 08:23 Partly Cloudy 27 -2.8 15 -9.4 61 61 ENE 9 15 30.63 1037 10 16 0.00 0.00
8:53 am 08:53 Sunny 28 -2.2 15 -9.4 58 58 NE 8 13 30.60 1036 10 16 0.00 0.00
9:53 am 09:53 Mostly Sunny 31 -0.6 16 -8.9 54 54 VRB 7 11 30.62 1037 10 16 0.00 0.00
10:53 am 10:53 Sunny 32 0 17 -8.3 54 54 NE 7 11 30.61 1037 10 16 0.00 0.00
11:53 am 11:53 Sunny 35 1.7 18 -7.8 50 50 NE 10 17 30.58 1036 10 16 0.00 0.00
12:53 pm 12:53 Sunny 37 2.8 18 -7.8 46 46 VRB 7 11 30.54 1034 10 16 0.00 0.00
1:53 pm 13:53 Sunny 38 3.3 17 -8.3 43 43 VRB 3 6 30.50 1033 10 16 0.00 0.00
2:53 pm 14:53 Sunny 38 3.3 17 -8.3 43 43 NE 6 9 30.49 1033 10 16 0.00 0.00
3:53 pm 15:53 Sunny 38 3.3 17 -8.3 43 43 NE 5 7 30.49 1033 10 16 0.00 0.00
4:53 pm 16:53 Sunny 37 2.8 17 -8.3 44 44 N 5 7 30.49 1032 10 16 0.00 0.00
5:53 pm 17:53 Clear 34 1.1 18 -7.8 52 52 NNE 6 9 30.51 1033 10 16 0.00 0.00
6:53 pm 18:53 Clear 33 0.6 18 -7.8 54 54 ENE 8 13 30.51 1033 10 16 0.00 0.00
7:53 pm 19:53 Clear 32 0 18 -7.8 56 56 ENE 6 9 30.50 1033 10 16 0.00 0.00
8:53 pm 20:53 Clear 31 -0.6 17 -8.3 56 56 NE 7 11 30.50 1033 10 16 0.00 0.00
9:53 pm 21:53 Clear 30 -1.1 17 -8.3 58 58 ENE 6 9 30.48 1032 10 16 0.00 0.00
10:53 pm 22:53 Clear 29 -1.7 17 -8.3 61 61 Calm 30.45 1031 10 16 0.00 0.00
11:53 pm 23:53 Clear 27 -2.8 18 -7.8 69 69 Calm 30.43 1031 10 16 0.00 0.00

Powered by AerisWeather